Weather History for KIRK - June, 2013

Change the Weather History Date:

Thursday, June 13, 2013

  Actual Average Record
Temperature  
Mean Temperature 72 °F 70 °F  
Max Temperature 83 °F 81 °F 94 °F (1921)
Min Temperature 61 °F 60 °F 42 °F (1955)
Cooling Degree Days 7 6  
Month to date cooling degree days 35 63  
Year to date cooling degree days 103 125  
Since 1 June cooling degree days 35 63  
Growing Degree Days 22 (Base 50)    
Moisture  
Dew Point 60 °F    
Average Humidity 70    
Maximum Humidity 93    
Minimum Humidity 47    
Precipitation  
Precipitation 0.00 in 0.20 in 3.05 in (1947)
Month to date precipitation 0.17 2.37  
Year to date precipitation 24.64 16.52  
Sea Level Pressure  
Sea Level Pressure 29.98 in    
Wind  
Wind Speed 8 mph (NNW)    
Max Wind Speed 21 mph    
Max Gust Speed 30 mph    
Visibility 10 miles    
Events      
T = Trace of Precipitation, MM = Missing Value Source: NWS Daily Summary

Daily Weather History Graph

Daily Weather History Graph

Search for Another Location

Airport or City:

Trip Planner

Search our weather history database for the weather conditions in past years. The results will help you decide how hot, cold, wet, or windy it might be!

Date:

Astronomy

Jun. 13, 2013 Rise Set
Actual Time 5:40 AM CDT 8:40 PM CDT
Civil Twilight 5:07 AM CDT 9:13 PM CDT
Nautical Twilight 4:25 AM CDT 9:54 PM CDT
Astronomical Twilight 3:37 AM CDT 10:43 PM CDT
Moon 10:17 AM CDT (6/13) 11:47 PM CDT (6/13)
Length of Visible Light 16h 05m
Length of Day
14h 59m
Waxing Crescent, 22% of the Moon is Illuminated
Jun 13
Waxing Crescent
Jun 16
First Quarter
Jun 23
Full
Jun 29
Last Quarter
Jul 8
New

Hourly Weather History & Observations

Time (CDT) Temp. Heat Index Dew Point Humidity Pressure Visibility Wind Dir Wind Speed Gust Speed Precip Events Conditions
12:55 AM 66.9 °F - 57.9 °F 73% 29.87 in 10.0 mi NW 15.0 mph 26.5 mph N/A   Clear
1:18 AM 66.2 °F - 57.2 °F 73% 29.88 in 10.0 mi WNW 16.1 mph 25.3 mph N/A   Mostly Cloudy
1:55 AM 64.9 °F - 57.9 °F 78% 29.88 in 10.0 mi WNW 13.8 mph 23.0 mph N/A   Overcast
2:55 AM 66.0 °F - 57.9 °F 75% 29.88 in 10.0 mi WNW 13.8 mph 21.9 mph N/A   Overcast
3:38 AM 66.2 °F - 57.2 °F 73% 29.91 in 10.0 mi WNW 12.7 mph 20.7 mph N/A   Overcast
3:55 AM 66.0 °F - 57.0 °F 73% 29.90 in 10.0 mi NW 8.1 mph 18.4 mph N/A   Overcast
4:34 AM 64.4 °F - 57.2 °F 77% 29.92 in 10.0 mi NW 9.2 mph - N/A   Overcast
4:55 AM 64.9 °F - 57.9 °F 78% 29.93 in 10.0 mi WNW 10.4 mph 17.3 mph N/A   Overcast
5:42 AM 64.4 °F - 57.2 °F 77% 29.96 in 10.0 mi NW 9.2 mph - N/A   Scattered Clouds
5:55 AM 63.0 °F - 57.0 °F 81% 29.96 in 10.0 mi NW 10.4 mph - N/A   Clear
6:55 AM 64.0 °F - 57.0 °F 78% 29.98 in 10.0 mi WNW 10.4 mph - N/A   Clear
7:18 AM 64.4 °F - 57.2 °F 77% 30.00 in 10.0 mi NNW 9.2 mph - N/A   Mostly Cloudy
7:55 AM 66.0 °F - 59.0 °F 78% 29.99 in 10.0 mi NNW 11.5 mph 17.3 mph N/A   Overcast
8:20 AM 68.0 °F - 60.8 °F 78% 30.02 in 10.0 mi North 11.5 mph - N/A   Scattered Clouds
8:55 AM 70.0 °F - 61.0 °F 73% 30.02 in 10.0 mi North 9.2 mph - N/A   Clear
9:55 AM 73.0 °F - 62.1 °F 68% 30.02 in 10.0 mi North 9.2 mph - N/A   Clear
10:55 AM 75.9 °F - 61.0 °F 60% 30.03 in 10.0 mi North 10.4 mph - N/A   Clear
11:55 AM 77.0 °F - 61.0 °F 58% 30.04 in 10.0 mi NE 6.9 mph - N/A   Clear
12:55 PM 78.1 °F - 62.1 °F 58% 30.04 in 10.0 mi Variable 4.6 mph - N/A   Clear
1:55 PM 80.1 °F 81.2 °F 62.1 °F 54% 30.04 in 10.0 mi NNW 6.9 mph - N/A   Clear
2:55 PM 82.0 °F 82.7 °F 61.0 °F 49% 30.03 in 10.0 mi North 8.1 mph - N/A   Clear
3:55 PM 82.9 °F 83.3 °F 61.0 °F 47% 30.02 in 10.0 mi NNE 6.9 mph - N/A   Scattered Clouds
4:55 PM 81.0 °F 81.7 °F 61.0 °F 50% 30.04 in 10.0 mi NW 5.8 mph - N/A   Clear
5:55 PM 79.0 °F - 61.0 °F 54% 30.04 in 10.0 mi NNW 4.6 mph - N/A   Clear
6:55 PM 77.0 °F - 62.1 °F 60% 30.05 in 10.0 mi NW 3.5 mph - N/A   Clear
7:55 PM 73.9 °F - 64.0 °F 71% 30.02 in 10.0 mi ENE 4.6 mph - N/A   Clear
8:55 PM 72.0 °F - 62.1 °F 71% 29.98 in 10.0 mi East 4.6 mph - N/A   Clear
9:55 PM 70.0 °F - 61.0 °F 73% 29.96 in 10.0 mi ENE 5.8 mph - N/A   Clear
10:55 PM 63.0 °F - 61.0 °F 93% 30.02 in 10.0 mi WSW 3.5 mph - N/A   Clear
11:55 PM 63.0 °F - 61.0 °F 93% 30.03 in 10.0 mi West 3.5 mph - N/A   Clear